Orbital Elements at Epoch 2459200.5 (2020-Dec-17.0) TDB
Reference: JPL 16 (heliocentric ecliptic J2000)
Element | Value | Uncertainty (1-sigma) | Units |
e | .1536800484767893 | 4.2724e-08 | |
a | 2.373137910792518 | 1.1607e-08 | au |
q | 2.008433961619817 | 1.0642e-07 | au |
i | 5.691870998497286 | 4.1193e-06 | deg |
node | 220.1699677959469 | 3.8706e-05 | deg |
peri | 123.6146338354011 | 4.0513e-05 | deg |
M | 312.4932181417587 | 1.3118e-05 | deg |
tp | 2459376.712212406725 (2021-Jun-11.21221241) | 4.9245e-05 | TDB |
period | 1335.31243298511 3.66 | 9.7969e-06 2.682e-08 | d yr |
n | .2695998263082257 | 1.978e-09 | deg/d |
Q | 2.737841859965218 | 1.3391e-08 | au |
|
| | Orbit Determination Parameters
Additional Information
|